[[{"header":{"parameterUnit":"m.s-1","parameterCategory":2,"la1":30.2991,"la2":30.254,"lo1":-89.0895,"lo2":-89.0444,"dy":0.0017,"dx":0.0017,"nx":28,"ny":28,"refTime":"2026-02-13T03:00:00:Z","depth":"0","parameterNumber":2,"parameterNumberName":"U-component_of_CURRENTS"},"data":[0,0,0,0,0,0,0,0,0,0,0,0,0,0,0,0,0,0,0,0,0,0,0,0,0,0,0,0,0,0,0,0,0,0,0,0,0,0,0,0,0,0,0,0,0,0,0,0,0,0,0,0,0,0,0,0,0,0,0.3365,0.3366,0,0.3383,0.3383,0.3382,0.3365,0.3365,0.3364,0.3364,0.3339,0.3339,0.3338,0,0,0,0,0,0,0,0,0,0,0,0,0,0.3321,0.3322,0.3365,0.3366,0.3366,0.3383,0.3383,0.3382,0.3365,0.3365,0.3364,0.3364,0.3339,0.3339,0.3338,0,0,0,0,0,0,0,0,0,0,0,0,0,0.3336,0.3322,0.3365,0.3362,0.3362,0.3383,0.3383,0.3382,0.3365,0.3365,0.3364,0.3364,0.3339,0.3339,0.3338,0.3348,0,0,0.3337,0.3337,0,0,0,0,0,0,0,0,0.3336,0.3338,0.3362,0.3362,0.3362,0.3374,0.3358,0.337,0.3366,0.3361,0.3364,0.3363,0.3349,0.3348,0.3349,0.3346,0.3345,0.3337,0.3337,0.3336,0.3336,0,0,0,0,0,0,0,0.3335,0.3337,0.3369,0.3362,0.3363,0.3361,0.3362,0.336,0.3355,0.3361,0.3361,0.3368,0.3348,0.3349,0.3348,0.3345,0.3337,0.3337,0.3336,0.3336,0.3394,0.3395,0,0,0,0,0,0,0.3339,0.3336,0.3368,0.337,0.3351,0.3363,0.3364,0.3368,0.3356,0.3355,0.3368,0.3367,0.335,0.3348,0.3347,0.339,0.3337,0.3336,0.3336,0.3392,0.3394,0.3396,0,0,0,0,0,0,0.3338,0.3342,0.3368,0.3356,0.3359,0.3364,0.3369,0.3369,0.3376,0.3362,0.3359,0.3376,0.335,0.3348,0.336,0.3387,0.3336,0.3335,0.339,0.3392,0.3395,0.3454,0,0,0,0,0,0,0.3337,0.3341,0.3345,0.3356,0.336,0.3391,0.337,0.337,0.3382,0.338,0.3368,0.3365,0.3349,0.3361,0.336,0.3385,0.3335,0.3387,0.3391,0.3394,0.345,0.3458,0.3465,0,0,0,0,0,0.3335,0.3345,0.3345,0.3349,0.3365,0.3392,0.3394,0.3393,0.3383,0.3395,0.3389,0.3366,0.3382,0.3362,0.336,0.3386,0.3386,0.339,0.3394,0.3446,0.3456,0.3465,0,0,0,0,0,0,0.3324,0.3345,0.3345,0.3359,0.338,0.3391,0.3402,0.3401,0.3406,0.3403,0.3383,0.3381,0.3407,0.3391,0.337,0.3416,0.3382,0.3386,0.3423,0.3432,0.344,0.3479,0.3335,0,0,0,0,0,0.3326,0.3341,0.3361,0.3374,0.3386,0.3395,0.3405,0.3408,0.3416,0.3417,0.341,0.3409,0.3423,0.3421,0.3429,0.3445,0.3504,0.3464,0.3472,0.3479,0.3512,0.3627,0.3649,0.3409,0.3409,0.3409,0,0,0.3325,0.3339,0.3346,0.3373,0.3386,0.3414,0.3399,0.3423,0.3447,0.3414,0.3438,0.3439,0.3437,0.3463,0.3473,0.345,0.3582,0.3484,0.349,0.352,0.3634,0.3658,0.3679,0.3412,0.3411,0.3411,0,0,0.3338,0.3346,0.3366,0.3388,0.3418,0.3431,0.3442,0.3462,0.3471,0.3495,0.3488,0.3514,0.351,0.3531,0.3536,0.3595,0.3627,0.3586,0.3648,0.3759,0.378,0.38,0.3922,0.3952,0.3581,0.3581,0.3582,0,0.3335,0.3364,0.3376,0.3406,0.3433,0.3442,0.3478,0.3492,0.3513,0.3541,0.351,0.3573,0.3553,0.3624,0.3634,0.3616,0.369,0.3606,0.3772,0.3792,0.3811,0.3932,0.3964,0.3585,0.3584,0.3584,0.3584,0,0.3365,0.3392,0.341,0.3452,0.3482,0.3515,0.3545,0.3574,0.3582,0.3605,0.3676,0.3672,0.3722,0.3706,0.3678,0.38,0.3815,0.3776,0.375,0.384,0.396,0.3993,0.359,0.3588,0.3587,0.3587,0,0,0.3349,0.3418,0.3424,0.3466,0.3513,0.3549,0.3596,0.366,0.3733,0.3735,0.3839,0.3836,0.3861,0.3872,0.3859,0.3925,0.4101,0.3904,0.3908,0.4031,0.4379,0.4328,0.4359,0.4094,0.41,0.4104,0.4415,0,0.3371,0.3444,0.3467,0.3544,0.3593,0.3628,0.3687,0.3747,0.3801,0.3902,0.392,0.4008,0.3918,0.3968,0.4022,0.4093,0.4188,0.4023,0.427,0.4278,0.4226,0.4394,0.4193,0.4448,0.4447,0.4453,0.4457,0,0.3395,0.3447,0.3525,0.3631,0.3656,0.3698,0.383,0.3888,0.4014,0.4066,0.4152,0.4191,0.43,0.4211,0.4401,0.4304,0.4362,0.4397,0.4409,0.4368,0.4288,0.4355,0.4507,0.4373,0.4507,0.4503,0.4499,0,0.3409,0.3493,0.3565,0.3595,0.3706,0.3752,0.3813,0.3936,0.403,0.4197,0.4306,0.4419,0.452,0.46,0.4649,0.4561,0.487,0.4761,0.4781,0.4778,0.4661,0.4637,0.4716,0.4934,0.4933,0.4933,0.4932,0,0.3442,0.3504,0.3578,0.3623,0.3738,0.379,0.3936,0.402,0.4176,0.4331,0.4404,0.4563,0.4624,0.4778,0.4787,0.4913,0.4999,0.4861,0.4876,0.4674,0.4649,0.4565,0.4511,0.4944,0.4942,0.4939,0.4937,0,0.3478,0.3514,0.3617,0.3719,0.3754,0.3844,0.3997,0.4118,0.4252,0.4468,0.4537,0.4735,0.493,0.4997,0.5169,0.5112,0.5082,0.5232,0.4994,0.4974,0.4793,0.4749,0.4734,0.4594,0.5319,0.532,0.5321,0,0.3527,0.3573,0.3685,0.3758,0.3808,0.3929,0.4028,0.415,0.428,0.4572,0.469,0.4938,0.5094,0.5334,0.5296,0.5372,0.5172,0.5222,0.499,0.4823,0.4788,0.4567,0.4432,0.4878,0.4875,0.4872,0.487,0,0.3629,0.3649,0.373,0.385,0.395,0.4054,0.4184,0.4276,0.445,0.4616,0.4843,0.4988,0.5216,0.5192,0.5285,0.5281,0.4958,0.5173,0.5069,0.4534,0.4236,0.4092,0.4647,0.4849,0.4851,0.4853,0.4854,0.4855,0.3713,0.3779,0.3853,0.3962,0.406,0.4128,0.4161,0.4295,0.4436,0.4591,0.4829,0.4925,0.5031,0.5109,0.5093,0.4889,0.485,0.4697,0.4696,0.4516,0.4247,0.4767,0.492,0.4922,0.4924,0.4926,0.4928,0,0.3807,0.3851,0.3964,0.4041,0.4081,0.4126,0.423,0.4204,0.4274,0.4463,0.4592,0.4624,0.4659,0.4676,0.4576,0.4409,0.417,0.43,0.3934,0.3851,0.4397,0.4237,0.4162,0.4162,0.4163,0.4163,0.4163,0.4163,0.387,0.3945,0.3965,0.4007,0.4036,0.4004,0.4002,0.3978,0.4034,0.4012,0.3976,0.4053,0.4226,0.4345,0.4179,0.407,0.3736,0.3597,0.36,0.3974,0.4007,0.4039,0.3872,0.3723,0.3722,0.2826,0.282,0.2815]},{"header":{"parameterUnit":"m.s-1","parameterCategory":2,"la1":30.2991,"la2":30.254,"lo1":-89.0895,"lo2":-89.0444,"dy":0.0017,"dx":0.0017,"nx":28,"ny":28,"refTime":"2026-02-13T03:00:00:Z","depth":"0","parameterNumber":3,"parameterNumberName":"V-component_of_CURRENTS"},"data":[0,0,0,0,0,0,0,0,0,0,0,0,0,0,0,0,0,0,0,0,0,0,0,0,0,0,0,0,0,0,0,0,0,0,0,0,0,0,0,0,0,0,0,0,0,0,0,0,0,0,0,0,0,0,0,0,0,0,0.0083,0.0082,0,0.0009,0.0008,0.0007,-0.0048,-0.0048,-0.0049,-0.0049,-0.0137,-0.0139,-0.0141,0,0,0,0,0,0,0,0,0,0,0,0,0,0.0113,0.0113,0.0083,0.0082,0.0082,0.0009,0.0008,0.0007,-0.0048,-0.0048,-0.0049,-0.0049,-0.0136,-0.0138,-0.0141,0,0,0,0,0,0,0,0,0,0,0,0,0,0.0074,0.0113,0.0083,0.0047,0.0043,0.001,0.0008,0.0007,-0.0048,-0.0048,-0.0049,-0.0049,-0.0135,-0.0138,-0.0141,-0.0152,0,0,-0.0151,-0.0152,0,0,0,0,0,0,0,0,0.0076,0.0073,0.0053,0.005,0.0045,-0.0009,-0.0013,-0.0046,-0.0048,-0.0016,-0.0049,-0.0049,-0.0093,-0.01,-0.0116,-0.0156,-0.016,-0.0151,-0.0153,-0.0154,-0.0155,0,0,0,0,0,0,0,0.0079,0.0075,0.0052,0.0053,0.0048,0.0013,0.0008,-0.002,-0.0053,-0.0018,-0.0022,-0.0026,-0.0096,-0.0113,-0.0118,-0.0161,-0.0151,-0.0154,-0.0156,-0.0157,-0.0209,-0.0209,0,0,0,0,0,0,0.0097,0.0078,0.0054,0.005,0.0063,0.0014,0.0007,0.0007,-0.0053,-0.0062,-0.0026,-0.0029,-0.0107,-0.0115,-0.0122,-0.0118,-0.0154,-0.0157,-0.0159,-0.021,-0.0209,-0.0209,0,0,0,0,0,0,0.0098,0.0095,0.0057,0.0063,0.0056,0.0014,0.0014,0.0006,-0.0006,-0.0058,-0.0068,-0.0029,-0.0108,-0.0117,-0.0138,-0.0122,-0.0159,-0.0161,-0.021,-0.021,-0.0209,-0.0122,0,0,0,0,0,0,0.0099,0.0096,0.0101,0.0065,0.0057,0.0051,0.0015,0.0005,-0.0007,-0.0012,-0.0063,-0.0073,-0.0109,-0.0133,-0.0141,-0.0127,-0.0164,-0.0211,-0.021,-0.0209,-0.0126,-0.0119,-0.0113,0,0,0,0,0,0.01,0.0117,0.0102,0.0099,0.0066,0.0052,0.0045,0.0011,-0.0007,-0.0004,-0.0041,-0.0071,-0.0133,-0.0135,-0.0145,-0.0131,-0.0211,-0.021,-0.0209,-0.0129,-0.012,-0.0113,0,0,0,0,0,0,0.0132,0.0112,0.0095,0.0104,0.0084,0.0044,0.0043,0.002,-0.0008,-0.0012,-0.0064,-0.0076,-0.009,-0.0122,-0.0122,-0.0145,-0.0177,-0.0178,-0.0113,-0.0105,-0.0099,-0.0074,-0.0166,0,0,0,0,0,0.0143,0.0149,0.0122,0.0128,0.0122,0.0084,0.0073,0.0053,0.0023,0.001,-0.0026,-0.0064,-0.0094,-0.0107,-0.014,-0.0148,-0.0168,-0.0147,-0.0141,-0.0135,-0.0122,-0.0149,-0.0144,-0.0205,-0.0205,-0.0205,0,0,0.0155,0.0146,0.0148,0.0135,0.0114,0.0122,0.0076,0.0071,0.0075,0.0006,0.0,-0.0043,-0.0092,-0.0104,-0.0113,-0.0127,-0.0123,-0.0133,-0.0128,-0.0118,-0.0148,-0.0142,-0.0136,-0.0204,-0.0205,-0.0205,0,0,0.0193,0.0178,0.0198,0.019,0.0174,0.0153,0.0158,0.0125,0.0109,0.0095,0.0048,0.0019,-0.0027,-0.0056,-0.0078,-0.0054,-0.0089,-0.0067,-0.001,-0.0037,-0.0032,-0.0028,-0.002,-0.0016,-0.0061,-0.0061,-0.0061,0,0.0209,0.0231,0.0201,0.022,0.0224,0.0176,0.0202,0.0179,0.0143,0.0139,0.0107,0.0041,-0.0003,-0.0015,-0.001,-0.0037,-0.0048,-0.0034,-0.0027,-0.0024,-0.0021,-0.0014,-0.0011,-0.0056,-0.0057,-0.0057,-0.0058,0,0.0262,0.0279,0.0292,0.0302,0.0301,0.0315,0.0288,0.0281,0.0252,0.0226,0.0202,0.0134,0.0099,0.0076,0.0039,0.004,0.0029,-0.0016,-0.0042,-0.0009,-0.0004,-0.0002,-0.005,-0.0052,-0.0053,-0.0054,0,0,0.0303,0.0327,0.0332,0.0356,0.0349,0.0358,0.0367,0.0365,0.0383,0.0323,0.034,0.0264,0.0223,0.0196,0.014,0.0111,0.0122,0.0065,0.0061,0.0084,0.0093,0.0097,0.01,0.0076,0.0076,0.0077,0.0098,0,0.0355,0.0417,0.041,0.0467,0.0499,0.0467,0.0481,0.047,0.0451,0.0454,0.0374,0.0358,0.027,0.0256,0.0215,0.0154,0.0128,0.0123,0.0048,0.0047,0.0054,0.0101,0.0096,0.0114,0.0099,0.01,0.01,0,0.0411,0.0449,0.0517,0.0559,0.057,0.0589,0.0616,0.0628,0.061,0.0592,0.0555,0.0495,0.0455,0.0363,0.0277,0.028,0.0196,0.0134,0.0132,0.0107,0.0055,0.0072,0.0118,-0.0099,0.0102,0.0102,0.0102,0,0.0464,0.0523,0.0584,0.0598,0.0633,0.0653,0.0669,0.0668,0.0702,0.0687,0.0714,0.0629,0.0614,0.0492,0.0372,0.0322,0.0288,0.0198,0.0121,0.0121,0.0088,0.0085,-0.0078,0.0121,0.012,0.012,0.012,0,0.0525,0.0573,0.0613,0.0648,0.0722,0.0719,0.0794,0.0791,0.082,0.0893,0.0794,0.0844,0.0642,0.0595,0.0445,0.033,0.0344,0.0154,0.0128,0.012,0.012,-0.0095,-0.0226,0.0121,0.0121,0.0121,0.0121,0,0.0575,0.0597,0.0673,0.0726,0.075,0.0803,0.0884,0.0938,0.0954,0.1054,0.1057,0.102,0.0973,0.0794,0.063,0.045,0.0195,0.0259,0.0288,0.0264,-0.005,-0.0173,-0.0349,-0.0448,0.0164,0.0164,0.0165,0,0.0606,0.065,0.0738,0.0789,0.0816,0.0898,0.0956,0.0995,0.1069,0.1187,0.1246,0.1233,0.1283,0.1069,0.0742,0.0501,0.0257,0.028,0.0154,-0.0044,-0.0203,-0.0306,-0.0385,0.0154,0.0154,0.0154,0.0154,0,0.0668,0.0692,0.0757,0.0862,0.0933,0.1038,0.113,0.1214,0.1292,0.1417,0.1584,0.1652,0.1456,0.1227,0.0857,0.0644,0.011,0.0271,0.0043,-0.0233,-0.0333,-0.0446,0.0139,0.0155,0.0155,0.0155,0.0155,0.0155,0.0708,0.0761,0.0835,0.0936,0.1032,0.116,0.1269,0.1407,0.1586,0.1825,0.186,0.206,0.1647,0.1165,0.0824,0.0146,0.0124,-0.0092,-0.0221,-0.0302,-0.0424,0.0188,0.018,0.018,0.018,0.018,0.018,0,0.075,0.0807,0.0903,0.1027,0.1148,0.1189,0.1373,0.1521,0.1779,0.2067,0.2277,0.2232,0.171,0.1125,0.0208,-0.0268,-0.0473,-0.0535,-0.0715,-0.0771,-0.0242,-0.0271,-0.0349,-0.0349,-0.0349,-0.0349,-0.0348,-0.0348,0.0769,0.0852,0.0899,0.1091,0.1198,0.1374,0.1496,0.1752,0.1997,0.2394,0.2587,0.27,0.2219,0.0586,-0.0505,-0.0748,-0.1117,-0.1188,-0.1348,-0.1033,-0.1003,-0.0975,-0.1035,-0.1271,-0.1272,-0.1832,-0.1838,-0.1843]}],[{"header":{"parameterUnit":"m.s-1","parameterCategory":2,"la1":30.2991,"la2":30.254,"lo1":-89.0895,"lo2":-89.0444,"dy":0.0017,"dx":0.0017,"nx":28,"ny":28,"refTime":"2026-02-13T03:00:00:Z","depth":"2","parameterNumber":2,"parameterNumberName":"U-component_of_CURRENTS"},"data":[0,0,0,0,0,0,0,0,0,0,0,0,0,0,0,0,0,0,0,0,0,0,0,0,0,0,0,0,0,0,0,0,0,0,0,0,0,0,0,0,0,0,0,0,0,0,0,0,0,0,0,0,0,0,0,0,0,0,0.2765,0.2765,0,0.2801,0.2802,0.2802,0.2804,0.2804,0.2804,0.2803,0.2815,0.2816,0.2816,0,0,0,0,0,0,0,0,0,0,0,0,0,0.2709,0.271,0.2765,0.2765,0.2766,0.2801,0.2802,0.2802,0.2804,0.2804,0.2804,0.2803,0.2815,0.2816,0.2816,0,0,0,0,0,0,0,0,0,0,0,0,0,0.2736,0.271,0.2764,0.2773,0.2775,0.2801,0.2802,0.2802,0.2804,0.2804,0.2803,0.2803,0.2815,0.2816,0.2816,0.2825,0,0,0.2818,0.2819,0,0,0,0,0,0,0,0,0.2734,0.2737,0.2771,0.2773,0.2774,0.28,0.2787,0.281,0.2804,0.279,0.2803,0.2803,0.281,0.2811,0.2815,0.2826,0.2827,0.2819,0.2819,0.2819,0.2819,0,0,0,0,0,0,0,0.2732,0.2736,0.2776,0.2772,0.2774,0.2781,0.2783,0.2791,0.2798,0.2791,0.2792,0.2801,0.281,0.2814,0.2815,0.2827,0.2819,0.2819,0.282,0.282,0.2899,0.2901,0,0,0,0,0,0,0.2733,0.2734,0.2775,0.2778,0.2757,0.2782,0.2785,0.279,0.2799,0.2801,0.2801,0.2801,0.2813,0.2814,0.2816,0.287,0.2819,0.282,0.282,0.2898,0.29,0.2902,0,0,0,0,0,0,0.2732,0.2736,0.2774,0.2759,0.2765,0.2783,0.2789,0.2791,0.2806,0.2807,0.2808,0.2815,0.2813,0.2815,0.284,0.2869,0.282,0.2821,0.2896,0.2898,0.2901,0.2951,0,0,0,0,0,0,0.273,0.2736,0.2742,0.2759,0.2766,0.28,0.2789,0.2792,0.2812,0.2813,0.2819,0.282,0.2813,0.2839,0.2841,0.2869,0.2821,0.2894,0.2897,0.29,0.2947,0.2955,0.2962,0,0,0,0,0,0.2728,0.2738,0.2742,0.2747,0.2773,0.2802,0.2806,0.2816,0.2814,0.2826,0.2835,0.282,0.2861,0.2841,0.2843,0.2871,0.2892,0.2896,0.29,0.2944,0.2953,0.2961,0,0,0,0,0,0,0.2715,0.274,0.2745,0.2761,0.2785,0.2803,0.2819,0.2825,0.2841,0.2844,0.2838,0.284,0.2877,0.2869,0.2847,0.2906,0.2876,0.288,0.2909,0.2918,0.2925,0.294,0.2822,0,0,0,0,0,0.2717,0.2732,0.2757,0.2772,0.2786,0.2805,0.2818,0.2829,0.2845,0.2852,0.2858,0.2871,0.2893,0.29,0.2915,0.2941,0.2964,0.2963,0.297,0.2976,0.2992,0.305,0.3064,0.2914,0.2914,0.2914,0,0,0.2716,0.2733,0.2741,0.2771,0.279,0.2817,0.2812,0.2842,0.2868,0.2851,0.2887,0.2898,0.2907,0.2943,0.2958,0.2938,0.3034,0.2981,0.2986,0.2998,0.3055,0.307,0.3083,0.2917,0.2916,0.2916,0,0,0.2725,0.274,0.2757,0.2781,0.2818,0.2834,0.2846,0.2875,0.2892,0.2926,0.293,0.2962,0.298,0.3002,0.3012,0.3069,0.3074,0.3072,0.3114,0.3171,0.3184,0.3195,0.3254,0.327,0.307,0.307,0.307,0,0.2724,0.2747,0.2767,0.2795,0.2818,0.2844,0.2872,0.2898,0.2932,0.2955,0.2945,0.3009,0.3013,0.307,0.3092,0.3087,0.312,0.3077,0.318,0.3192,0.3203,0.326,0.3278,0.3073,0.3072,0.3072,0.3072,0,0.2745,0.2769,0.2785,0.2826,0.2856,0.2886,0.2927,0.296,0.2981,0.3006,0.3069,0.3087,0.3124,0.3134,0.3128,0.3211,0.3211,0.3186,0.3157,0.3221,0.3278,0.3295,0.3077,0.3076,0.3075,0.3074,0,0,0.2723,0.2786,0.2792,0.2815,0.2876,0.2899,0.2957,0.3012,0.306,0.3092,0.3155,0.3196,0.3212,0.3228,0.3235,0.3282,0.3387,0.327,0.3271,0.3326,0.3525,0.3477,0.3491,0.338,0.3383,0.3385,0.3537,0,0.2733,0.2779,0.2814,0.2864,0.2892,0.2942,0.2995,0.3051,0.3105,0.3173,0.321,0.3274,0.3247,0.3282,0.3324,0.3382,0.3433,0.3349,0.3457,0.346,0.3407,0.3509,0.3224,0.3331,0.3554,0.3557,0.3559,0,0.2737,0.2771,0.2815,0.2887,0.2905,0.2942,0.3036,0.309,0.3193,0.3243,0.3312,0.3348,0.3439,0.3399,0.3528,0.3478,0.351,0.3541,0.3547,0.3497,0.3444,0.3301,0.3354,0.3587,0.3585,0.3583,0.3581,0,0.27,0.2769,0.2801,0.2824,0.2911,0.2946,0.3001,0.3105,0.3178,0.3302,0.3372,0.3462,0.3538,0.359,0.3651,0.3605,0.379,0.3728,0.3715,0.3712,0.3489,0.3461,0.3819,0.3818,0.3818,0.3818,0.3817,0,0.269,0.2715,0.2785,0.2802,0.2863,0.2929,0.3012,0.3095,0.3226,0.3314,0.3405,0.35,0.3594,0.3694,0.3711,0.3786,0.3841,0.3759,0.376,0.3499,0.3472,0.3696,0.368,0.3823,0.3822,0.3821,0.382,0,0.2642,0.2687,0.2726,0.2809,0.2845,0.2885,0.302,0.3076,0.3222,0.3347,0.3397,0.3579,0.3715,0.3793,0.3916,0.3881,0.3942,0.3943,0.364,0.3602,0.381,0.3795,0.3955,0.3954,0.3954,0.3954,0.3954,0,0.2624,0.2636,0.2716,0.274,0.2779,0.2854,0.2905,0.3059,0.3143,0.3377,0.3437,0.3632,0.3726,0.391,0.3915,0.3968,0.3994,0.3714,0.3565,0.3845,0.383,0.3815,0.38,0.3295,0.3289,0.3285,0.3281,0,0.2585,0.2605,0.2632,0.2684,0.2729,0.2787,0.2888,0.2948,0.3122,0.3243,0.3408,0.3507,0.3713,0.366,0.3758,0.3733,0.368,0.3625,0.4017,0.3303,0.3235,0.3216,0.3221,0.3241,0.3245,0.3248,0.325,0.3252,0.2546,0.2548,0.2576,0.262,0.2663,0.269,0.2694,0.2802,0.2901,0.3038,0.3241,0.3309,0.3414,0.3429,0.3353,0.3305,0.3545,0.3363,0.3372,0.3386,0.3282,0.3216,0.3201,0.3204,0.3207,0.321,0.3213,0,0.2499,0.2503,0.2519,0.2543,0.2523,0.2601,0.2657,0.2621,0.2654,0.2831,0.295,0.2803,0.2826,0.2919,0.2798,0.2822,0.2738,0.2693,0.2542,0.2588,0.2628,0.2476,0.2186,0.2182,0.2178,0.2175,0,0,0.2465,0.2446,0.2448,0.2393,0.2409,0.2339,0.233,0.2308,0.2381,0.2382,0.2437,0.2715,0.2857,0.2476,0.2451,0.2288,0.2401,0.2202,0.3041,0.2911,0.2945,0.3053,0.2879,0,0,0,0,0]},{"header":{"parameterUnit":"m.s-1","parameterCategory":2,"la1":30.2991,"la2":30.254,"lo1":-89.0895,"lo2":-89.0444,"dy":0.0017,"dx":0.0017,"nx":28,"ny":28,"refTime":"2026-02-13T03:00:00:Z","depth":"2","parameterNumber":3,"parameterNumberName":"V-component_of_CURRENTS"},"data":[0,0,0,0,0,0,0,0,0,0,0,0,0,0,0,0,0,0,0,0,0,0,0,0,0,0,0,0,0,0,0,0,0,0,0,0,0,0,0,0,0,0,0,0,0,0,0,0,0,0,0,0,0,0,0,0,0,0,0.0121,0.012,0,0.0056,0.0055,0.0054,0.0008,0.0008,0.0008,0.0008,-0.0068,-0.007,-0.0072,0,0,0,0,0,0,0,0,0,0,0,0,0,0.0149,0.0149,0.0121,0.012,0.012,0.0056,0.0055,0.0054,0.0008,0.0008,0.0008,0.0008,-0.0068,-0.007,-0.0072,0,0,0,0,0,0,0,0,0,0,0,0,0,0.0114,0.0149,0.0121,0.009,0.0087,0.0056,0.0055,0.0054,0.0008,0.0008,0.0008,0.0007,-0.0067,-0.007,-0.0072,-0.0083,0,0,-0.0081,-0.0082,0,0,0,0,0,0,0,0,0.0116,0.0113,0.0096,0.0093,0.0089,0.0041,0.0037,0.0008,0.0008,0.0036,0.0008,0.0007,-0.0031,-0.0037,-0.0051,-0.0087,-0.009,-0.0081,-0.0083,-0.0084,-0.0084,0,0,0,0,0,0,0,0.0119,0.0115,0.0093,0.0095,0.0091,0.0061,0.0056,0.0031,0.0004,0.0034,0.0031,0.0027,-0.0033,-0.0048,-0.0053,-0.0091,-0.0081,-0.0083,-0.0085,-0.0086,-0.0135,-0.0135,0,0,0,0,0,0,0.0134,0.0118,0.0095,0.0092,0.0104,0.0061,0.0055,0.0055,0.0004,-0.0004,0.0027,0.0025,-0.0043,-0.005,-0.0056,-0.0054,-0.0084,-0.0086,-0.0088,-0.0136,-0.0135,-0.0135,0,0,0,0,0,0,0.0135,0.0133,0.0098,0.0104,0.0098,0.0061,0.0062,0.0054,0.0043,-0.0001,-0.0009,0.0024,-0.0044,-0.0052,-0.007,-0.0058,-0.0087,-0.009,-0.0136,-0.0135,-0.0135,-0.0062,0,0,0,0,0,0,0.0136,0.0133,0.0138,0.0106,0.0098,0.0091,0.0062,0.0053,0.0042,0.0038,-0.0006,-0.0014,-0.0045,-0.0066,-0.0073,-0.0062,-0.0092,-0.0136,-0.0136,-0.0135,-0.0065,-0.0059,-0.0054,0,0,0,0,0,0.0137,0.0151,0.0138,0.0136,0.0106,0.0092,0.0085,0.0056,0.0042,0.0044,0.0013,-0.0012,-0.0067,-0.0068,-0.0076,-0.0066,-0.0137,-0.0136,-0.0135,-0.0067,-0.006,-0.0054,0,0,0,0,0,0,0.0163,0.0146,0.0132,0.0139,0.0121,0.0085,0.0084,0.0063,0.0039,0.0036,-0.0008,-0.0017,-0.003,-0.0058,-0.0058,-0.0079,-0.0106,-0.0107,-0.0052,-0.0046,-0.004,-0.0019,-0.0094,0,0,0,0,0,0.0172,0.0178,0.0153,0.0158,0.0153,0.0119,0.0109,0.0091,0.0066,0.0055,0.0023,-0.001,-0.0035,-0.0047,-0.0075,-0.0084,-0.0114,-0.0084,-0.0079,-0.0074,-0.0063,-0.01,-0.0097,-0.0132,-0.0132,-0.0132,0,0,0.0182,0.0174,0.0176,0.0163,0.0146,0.0152,0.0112,0.0106,0.0109,0.0051,0.0045,0.0008,-0.0034,-0.0045,-0.0053,-0.0066,-0.008,-0.0073,-0.0068,-0.006,-0.0099,-0.0096,-0.0092,-0.0132,-0.0132,-0.0132,0,0,0.0213,0.02,0.0218,0.021,0.0195,0.0177,0.0181,0.0152,0.0137,0.0125,0.0085,0.0058,0.0019,-0.0007,-0.0026,-0.0007,-0.0051,-0.0019,0.0028,-0.0008,-0.0005,-0.0003,-0.0034,-0.0036,-0.0014,-0.0014,-0.0014,0,0.0225,0.0246,0.022,0.0236,0.024,0.0197,0.022,0.0199,0.0166,0.0162,0.0134,0.0076,0.0038,0.0027,0.003,0.0006,-0.0021,0.0009,-0.0,0.0001,0.0002,-0.003,-0.0033,-0.0011,-0.0011,-0.0011,-0.0012,0,0.0271,0.0286,0.0297,0.0307,0.0306,0.0318,0.0293,0.0286,0.026,0.0237,0.0214,0.0154,0.0123,0.0102,0.0071,0.0062,0.0039,0.0011,-0.0013,0.001,-0.0026,-0.0029,-0.0005,-0.0007,-0.0008,-0.0009,0,0,0.0303,0.0327,0.0331,0.0355,0.0348,0.0357,0.0363,0.036,0.0375,0.032,0.0328,0.0265,0.0228,0.0204,0.0155,0.0119,0.0096,0.0074,0.0071,0.0051,0.002,-0.0007,-0.0014,0.0066,0.0065,0.0065,-0.0006,0,0.0348,0.0405,0.0399,0.0452,0.0482,0.0454,0.0465,0.0454,0.0435,0.043,0.0355,0.0341,0.0269,0.0257,0.0208,0.013,0.009,0.0118,-0.0006,-0.0009,-0.003,-0.0018,0.001,-0.0052,-0.001,-0.0011,-0.0011,0,0.0396,0.0433,0.0496,0.0538,0.0548,0.0565,0.059,0.0599,0.0573,0.0557,0.052,0.0461,0.0404,0.0335,0.0208,0.023,0.0135,0.0062,0.0057,0.0006,-0.0043,-0.007,-0.0061,-0.0018,-0.0018,-0.0017,-0.0017,0,0.0445,0.05,0.0558,0.0572,0.0606,0.0626,0.0641,0.0637,0.0673,0.0645,0.066,0.0566,0.0538,0.0401,0.0245,0.0228,0.0099,0.0056,-0.0061,-0.0064,-0.0077,-0.008,-0.0038,-0.0038,-0.0037,-0.0037,-0.0037,0,0.0501,0.0547,0.0587,0.062,0.0694,0.0689,0.0762,0.076,0.0783,0.0842,0.0734,0.0753,0.0554,0.0451,0.0286,0.011,0.0128,-0.0046,-0.0082,-0.0051,-0.0052,-0.0053,-0.0054,-0.004,-0.0039,-0.0039,-0.0038,0,0.0548,0.0569,0.0644,0.0696,0.0721,0.0775,0.086,0.092,0.0915,0.0988,0.0986,0.0906,0.0771,0.0558,0.0348,0.0184,0.0003,-0.0068,-0.0016,-0.0045,-0.0148,-0.0145,-0.0203,-0.0205,-0.0206,-0.0207,-0.0208,0,0.0579,0.062,0.0709,0.0769,0.0798,0.0881,0.095,0.0986,0.1071,0.1091,0.1144,0.1029,0.0975,0.0647,0.034,0.0044,0.0004,-0.0129,-0.0164,-0.0135,-0.0165,-0.0159,-0.0154,-0.0154,-0.0154,-0.0155,-0.0155,0,0.0641,0.0665,0.0734,0.0857,0.0943,0.1056,0.116,0.1247,0.1297,0.1344,0.1393,0.134,0.1027,0.0736,0.0319,0.0117,-0.0084,-0.0146,-0.0124,-0.0115,-0.0094,-0.0121,-0.0117,-0.0158,-0.0157,-0.0157,-0.0157,-0.0157,0.0688,0.0748,0.0838,0.0957,0.1068,0.1215,0.1322,0.1434,0.156,0.1636,0.1585,0.151,0.1162,0.0638,0.0275,-0.0107,-0.0094,-0.0229,-0.0226,-0.0223,-0.0203,-0.0186,-0.0262,-0.0262,-0.0263,-0.0263,-0.0263,0,0.0756,0.0824,0.0937,0.1084,0.1218,0.1267,0.1458,0.156,0.1709,0.1762,0.1782,0.1448,0.1105,0.0705,0.0138,-0.0203,-0.0225,-0.0307,-0.0258,-0.0253,-0.0249,-0.0229,-0.0297,-0.0298,-0.0299,-0.0299,0,0,0.0794,0.0908,0.0966,0.1183,0.1295,0.1482,0.1597,0.1731,0.1817,0.1859,0.1818,0.1729,0.1234,0.0823,0.0354,0.003,-0.003,-0.0033,0.003,0.0148,0.0157,-0.0171,-0.013,0,0,0,0,0]}],[{"header":{"parameterUnit":"m.s-1","parameterCategory":2,"la1":30.2991,"la2":30.254,"lo1":-89.0895,"lo2":-89.0444,"dy":0.0017,"dx":0.0017,"nx":28,"ny":28,"refTime":"2026-02-13T03:00:00:Z","depth":"4","parameterNumber":2,"parameterNumberName":"U-component_of_CURRENTS"},"data":[0,0,0,0,0,0,0,0,0,0,0,0,0,0,0,0,0,0,0,0,0,0,0,0,0,0,0,0,0,0,0,0,0,0,0,0,0,0,0,0,0,0,0,0,0,0,0,0,0,0,0,0,0,0,0,0,0,0,0.1833,0.1834,0,0.191,0.191,0.1911,0.1973,0.1974,0.1975,0.1976,0.2067,0.2068,0.207,0,0,0,0,0,0,0,0,0,0,0,0,0,0.1743,0.1745,0.1833,0.1834,0.1835,0.1909,0.191,0.1911,0.1973,0.1974,0.1975,0.1976,0.2066,0.2068,0.207,0,0,0,0,0,0,0,0,0,0,0,0,0,0.1796,0.1745,0.1832,0.1876,0.1881,0.1909,0.191,0.1911,0.1973,0.1974,0.1975,0.1977,0.2066,0.2068,0.207,0.2062,0,0,0.2078,0.2079,0,0,0,0,0,0,0,0,0.1793,0.1799,0.1869,0.1873,0.1879,0.1935,0.1913,0.1963,0.1973,0.1936,0.1976,0.1977,0.2024,0.203,0.2039,0.2066,0.207,0.2078,0.208,0.2081,0.2082,0,0,0,0,0,0,0,0.1789,0.1796,0.1861,0.187,0.1876,0.1894,0.1902,0.1922,0.1971,0.1939,0.1945,0.1956,0.2027,0.2037,0.2042,0.2071,0.2078,0.208,0.2082,0.2083,0.2214,0.2216,0,0,0,0,0,0,0.1782,0.1792,0.1859,0.1864,0.184,0.1894,0.1904,0.1914,0.1971,0.1981,0.1955,0.1958,0.2032,0.2039,0.2045,0.2144,0.2081,0.2083,0.2085,0.2212,0.2215,0.2217,0,0,0,0,0,0,0.1779,0.1787,0.1856,0.1831,0.1842,0.1895,0.1906,0.1915,0.1965,0.1983,0.1993,0.1999,0.2033,0.2042,0.2102,0.2144,0.2084,0.2087,0.221,0.2213,0.2216,0.2274,0,0,0,0,0,0,0.1776,0.1785,0.1809,0.1831,0.1843,0.1898,0.1905,0.1916,0.1968,0.1975,0.2024,0.2031,0.2035,0.2099,0.2105,0.2147,0.2089,0.2208,0.2212,0.2215,0.2269,0.2278,0.2286,0,0,0,0,0,0.1773,0.1793,0.1809,0.1819,0.1867,0.1899,0.1907,0.1947,0.1969,0.1996,0.2035,0.2032,0.2127,0.2102,0.2109,0.2152,0.2206,0.221,0.2215,0.2266,0.2277,0.2286,0,0,0,0,0,0,0.1769,0.1802,0.182,0.1852,0.1886,0.1911,0.1946,0.1968,0.2019,0.204,0.2054,0.2065,0.2134,0.2136,0.2108,0.2202,0.2167,0.2173,0.2203,0.2214,0.2222,0.2222,0.2091,0,0,0,0,0,0.1777,0.1805,0.1835,0.1866,0.1886,0.1923,0.195,0.1977,0.2014,0.204,0.2074,0.2113,0.215,0.2177,0.2206,0.2255,0.2261,0.2289,0.2297,0.2304,0.231,0.2352,0.2365,0.2232,0.2232,0.2232,0,0,0.1785,0.1809,0.1827,0.1869,0.1901,0.1934,0.1943,0.1995,0.2034,0.2041,0.2118,0.2147,0.217,0.2229,0.226,0.2241,0.2348,0.231,0.2315,0.2318,0.2358,0.2371,0.2382,0.2235,0.2234,0.2234,0,0,0.1802,0.1839,0.1865,0.1896,0.195,0.1971,0.1994,0.2042,0.2083,0.2145,0.2166,0.2222,0.2276,0.2303,0.232,0.2392,0.2391,0.2409,0.2453,0.2494,0.2505,0.2514,0.2548,0.256,0.2413,0.2413,0.2413,0,0.1815,0.1847,0.1879,0.1912,0.1945,0.1991,0.2026,0.2068,0.2135,0.2169,0.2183,0.2284,0.2308,0.2374,0.2406,0.2411,0.2433,0.241,0.2504,0.2513,0.2522,0.2554,0.2566,0.2416,0.2416,0.2415,0.2415,0,0.1837,0.188,0.1902,0.1956,0.1995,0.2038,0.209,0.2146,0.2199,0.2234,0.2326,0.2366,0.2423,0.2445,0.2451,0.2532,0.2527,0.2508,0.2474,0.2539,0.2568,0.2581,0.2421,0.242,0.2419,0.2418,0,0,0.1817,0.19,0.1912,0.1945,0.2025,0.2051,0.213,0.2197,0.2255,0.2327,0.2399,0.2472,0.2503,0.2525,0.2548,0.259,0.2677,0.2586,0.2587,0.2612,0.2775,0.2611,0.2608,0.2679,0.2682,0.2684,0.2773,0,0.1829,0.1885,0.1932,0.1998,0.203,0.2101,0.2165,0.2238,0.2311,0.2393,0.2452,0.2533,0.253,0.2581,0.2621,0.267,0.2711,0.2655,0.2715,0.2717,0.2556,0.2617,0.2691,0.2782,0.2785,0.2787,0.2788,0,0.1826,0.1867,0.1928,0.2016,0.204,0.2094,0.2203,0.2268,0.2385,0.2451,0.2537,0.2589,0.2683,0.2666,0.2771,0.2741,0.2767,0.2791,0.2795,0.2627,0.2574,0.2703,0.281,0.2808,0.2806,0.2805,0.2804,0,0.1769,0.1861,0.191,0.1941,0.2048,0.2103,0.217,0.2287,0.2356,0.2502,0.2571,0.2672,0.2747,0.2797,0.2855,0.283,0.2956,0.2917,0.2791,0.2781,0.2875,0.2864,0.2984,0.2984,0.2983,0.2983,0.2983,0,0.1738,0.1782,0.1894,0.1918,0.1987,0.208,0.2172,0.2263,0.2398,0.2474,0.26,0.2673,0.2789,0.2866,0.2891,0.2879,0.2985,0.2808,0.2793,0.2899,0.2889,0.2884,0.2871,0.2986,0.2986,0.2985,0.2984,0,0.1661,0.1737,0.1796,0.1917,0.1961,0.2011,0.216,0.2219,0.2375,0.2483,0.2539,0.2707,0.2807,0.2895,0.2994,0.2912,0.2928,0.2898,0.3027,0.3016,0.2716,0.2706,0.275,0.2745,0.2741,0.2737,0.2734,0,0.162,0.1647,0.1773,0.1805,0.1867,0.1961,0.2022,0.2189,0.2254,0.2475,0.2506,0.2676,0.2764,0.2771,0.2877,0.2911,0.2878,0.286,0.2759,0.2712,0.2694,0.269,0.2686,0.2727,0.2726,0.2725,0.2724,0,0.1538,0.1602,0.1645,0.1716,0.1784,0.1845,0.1949,0.1987,0.2173,0.2336,0.2421,0.2486,0.2595,0.2666,0.2723,0.2737,0.2851,0.2814,0.2821,0.2727,0.2685,0.267,0.2671,0.2709,0.2711,0.2713,0.2714,0,0.1478,0.1483,0.1551,0.16,0.1677,0.1701,0.1774,0.1854,0.1945,0.2189,0.2214,0.24,0.2564,0.2579,0.263,0.2636,0.2585,0.2482,0.2506,0.2523,0.2407,0.2318,0.2223,0,0,0,0,0,0.1402,0.1392,0.1427,0.1464,0.1537,0.1586,0.171,0.1791,0.1978,0.1978,0.2091,0.2185,0.2271,0.2375,0.2336,0.2528,0.2593,0.2471,0.2485,0.2627,0.2644,0.2528,0,0,0,0,0,0,0.1346,0.137,0.1377,0.1346,0.1353,0.1415,0.149,0.1616,0.1629,0.1831,0.1895,0.2045,0.2169,0.2272,0.2292,0.2322,0.2283,0.2592,0.2586,0.2617,0.2633,0.2647,0.2533,0,0,0,0,0]},{"header":{"parameterUnit":"m.s-1","parameterCategory":2,"la1":30.2991,"la2":30.254,"lo1":-89.0895,"lo2":-89.0444,"dy":0.0017,"dx":0.0017,"nx":28,"ny":28,"refTime":"2026-02-13T03:00:00:Z","depth":"4","parameterNumber":3,"parameterNumberName":"V-component_of_CURRENTS"},"data":[0,0,0,0,0,0,0,0,0,0,0,0,0,0,0,0,0,0,0,0,0,0,0,0,0,0,0,0,0,0,0,0,0,0,0,0,0,0,0,0,0,0,0,0,0,0,0,0,0,0,0,0,0,0,0,0,0,0,0.0107,0.0107,0,0.0064,0.0063,0.0063,0.0033,0.0033,0.0033,0.0033,-0.0023,-0.0025,-0.0026,0,0,0,0,0,0,0,0,0,0,0,0,0,0.0125,0.0125,0.0107,0.0107,0.0106,0.0064,0.0063,0.0063,0.0033,0.0033,0.0033,0.0033,-0.0023,-0.0024,-0.0026,0,0,0,0,0,0,0,0,0,0,0,0,0,0.0102,0.0125,0.0107,0.0087,0.0085,0.0064,0.0063,0.0063,0.0033,0.0033,0.0033,0.0033,-0.0022,-0.0024,-0.0026,-0.0036,0,0,-0.0033,-0.0034,0,0,0,0,0,0,0,0,0.0103,0.0101,0.0091,0.0089,0.0086,0.0055,0.0049,0.0029,0.0033,0.0052,0.0033,0.0033,0.0003,-0.0002,-0.0011,-0.0038,-0.0041,-0.0033,-0.0034,-0.0035,-0.0036,0,0,0,0,0,0,0,0.0105,0.0103,0.0089,0.009,0.0088,0.0067,0.0064,0.0045,0.0027,0.005,0.0048,0.0045,0.0001,-0.0009,-0.0012,-0.0042,-0.0033,-0.0035,-0.0036,-0.0037,-0.0077,-0.0076,0,0,0,0,0,0,0.0115,0.0104,0.009,0.0088,0.0096,0.0067,0.0064,0.0064,0.0028,0.0023,0.0045,0.0044,-0.0005,-0.001,-0.0014,-0.0014,-0.0035,-0.0037,-0.0038,-0.0077,-0.0077,-0.0076,0,0,0,0,0,0,0.0116,0.0114,0.0092,0.0096,0.0092,0.0068,0.0068,0.0063,0.0057,0.0025,0.0019,0.0044,-0.0005,-0.0012,-0.0026,-0.0017,-0.0038,-0.004,-0.0077,-0.0077,-0.0076,-0.0021,0,0,0,0,0,0,0.0116,0.0115,0.0119,0.0097,0.0092,0.0087,0.0068,0.0063,0.0056,0.0054,0.0022,0.0016,-0.0006,-0.0022,-0.0028,-0.002,-0.0041,-0.0077,-0.0077,-0.0077,-0.0023,-0.0019,-0.0015,0,0,0,0,0,0.0117,0.0127,0.012,0.0118,0.0098,0.0088,0.0084,0.0065,0.0056,0.0057,0.0036,0.0017,-0.0024,-0.0024,-0.003,-0.0023,-0.0077,-0.0077,-0.0077,-0.0025,-0.002,-0.0015,0,0,0,0,0,0,0.0134,0.0124,0.0116,0.0121,0.0108,0.0083,0.0084,0.007,0.0053,0.0053,0.002,0.0013,0.0003,-0.0018,-0.0017,-0.0034,-0.0054,-0.0055,-0.0012,-0.0008,-0.0004,0.0013,-0.0043,0,0,0,0,0,0.0141,0.0147,0.013,0.0134,0.0131,0.0108,0.0101,0.009,0.0072,0.0065,0.0042,0.0018,-0.0001,-0.001,-0.0031,-0.0038,-0.0066,-0.0039,-0.0035,-0.0031,-0.0022,-0.0058,-0.0056,-0.0075,-0.0075,-0.0075,0,0,0.0148,0.0143,0.0146,0.0138,0.0127,0.0132,0.0104,0.01,0.0104,0.0061,0.0059,0.0031,-0.0,-0.0009,-0.0015,-0.0024,-0.0042,-0.0031,-0.0027,-0.002,-0.0057,-0.0055,-0.0054,-0.0075,-0.0075,-0.0075,0,0,0.017,0.0163,0.0176,0.0172,0.0163,0.0151,0.0154,0.0134,0.0125,0.0117,0.0088,0.0068,0.0038,0.0019,0.0005,0.0017,-0.0021,0.0009,0.0044,0.001,0.0011,0.0012,-0.0024,-0.0027,0.0012,0.0012,0.0012,0,0.0179,0.0195,0.0177,0.019,0.0196,0.0165,0.0184,0.0169,0.0147,0.0144,0.0125,0.0081,0.0053,0.0043,0.0046,0.0028,-0.0,0.0031,0.0016,0.0016,0.0016,-0.0021,-0.0025,0.0015,0.0014,0.0014,0.0014,0,0.0211,0.0225,0.0234,0.0244,0.0245,0.0255,0.0239,0.0234,0.0218,0.0202,0.0184,0.0139,0.0117,0.01,0.0077,0.0067,0.0044,0.0025,0.0007,0.0022,-0.0019,-0.0024,0.0019,0.0018,0.0017,0.0016,0,0,0.0231,0.0254,0.0258,0.0279,0.0278,0.0286,0.0292,0.0292,0.0305,0.0264,0.027,0.0224,0.0196,0.0178,0.014,0.0108,0.0079,0.0072,0.0069,0.0042,-0.0,-0.002,-0.0028,0.0056,0.0055,0.0055,-0.003,0,0.0263,0.0308,0.0307,0.0351,0.0375,0.0359,0.037,0.0364,0.0352,0.0347,0.029,0.028,0.0227,0.0219,0.0177,0.0106,0.0069,0.0104,-0.0015,-0.0019,-0.0033,-0.0033,0.0054,-0.0034,-0.0035,-0.0036,-0.0037,0,0.0296,0.0326,0.0377,0.0416,0.0425,0.0444,0.0468,0.0477,0.0457,0.0446,0.0418,0.0372,0.0321,0.0273,0.0155,0.0179,0.0099,0.0035,0.003,-0.0008,-0.0047,-0.0053,-0.0046,-0.0045,-0.0045,-0.0044,-0.0043,0,0.0326,0.0375,0.0423,0.0436,0.047,0.0491,0.0507,0.0508,0.0535,0.0515,0.0525,0.0447,0.0415,0.0304,0.0168,0.0164,0.003,0.0006,-0.0091,-0.0094,-0.0074,-0.0075,-0.0077,-0.0076,-0.0076,-0.0076,-0.0076,0,0.0362,0.0402,0.0445,0.0472,0.0536,0.0539,0.0601,0.0602,0.0621,0.0659,0.0584,0.0581,0.0422,0.0324,0.0192,0.0035,0.0044,-0.0083,-0.0115,-0.005,-0.0047,-0.0079,-0.0078,-0.0079,-0.0078,-0.0078,-0.0077,0,0.0388,0.0413,0.0476,0.0528,0.0553,0.06,0.0677,0.0724,0.0724,0.077,0.0768,0.0685,0.0549,0.0379,0.0193,0.0076,-0.0076,-0.0135,-0.0051,-0.0078,-0.0184,-0.0179,-0.0247,-0.0248,-0.0249,-0.025,-0.0251,0,0.0405,0.0439,0.0523,0.0574,0.0604,0.068,0.0739,0.0775,0.083,0.0831,0.0854,0.0741,0.0658,0.0388,0.0194,-0.0066,-0.0106,-0.0187,-0.0189,-0.0176,-0.0201,-0.0194,-0.0188,-0.0253,-0.0253,-0.0254,-0.0254,0,0.0438,0.0467,0.0524,0.0628,0.0706,0.08,0.0881,0.0928,0.0964,0.0965,0.0929,0.0781,0.0622,0.0395,0.0189,0.0002,-0.0136,-0.02,-0.0199,-0.0202,-0.0184,-0.0206,-0.0199,-0.0258,-0.0257,-0.0257,-0.0257,0,0.0465,0.051,0.0586,0.068,0.0783,0.0884,0.0927,0.0983,0.103,0.102,0.1002,0.0822,0.0717,0.0429,0.0242,0.0051,-0.0003,-0.0065,-0.0072,-0.007,-0.0002,0.0048,0.0021,0,0,0,0,0,0.049,0.0545,0.0634,0.074,0.0844,0.0909,0.1009,0.1043,0.1072,0.1061,0.1035,0.0884,0.0596,0.0472,0.0279,0.0204,-0.0045,-0.0031,-0.0122,-0.028,-0.0276,-0.0229,0,0,0,0,0,0,0.0508,0.059,0.0635,0.0773,0.0853,0.0979,0.1047,0.1072,0.1062,0.1052,0.0908,0.0827,0.0552,0.0707,0.0273,0.0213,0.0127,-0.0166,-0.0171,-0.0283,-0.0279,-0.0275,-0.0225,0,0,0,0,0]}]]